A/2018 V3

Japanese version
Home page
Updated on December 4, 2018

---------------------------------------------------------------------

* Profile

Discovery Date November 12, 2018
Magnitude 21.9 mag
Discoverer Pan-STARRS 2 (Haleakala)

* Orbital Elements

Epoch 2019 Aug. 25.0 TT = JDT 2458720.5
T 2019 Sept. 8.66125 TT                                 MPCW
q   1.3410547            (2000.0)            P               Q
z  +0.0077067      Peri.    3.43739     +0.57838657     -0.79025511
 +/-0.0002712      Node   308.66222     -0.75449397     -0.61255752
e   0.9896649      Incl.  164.97696     -0.31017386     +0.01643599
From 59 observations 2018 Nov. 2-29, mean residual 0".3.

* Finding Charts

* Magnitudes Graph

        H = 15.5  G = 0.15

---------------------------------------------------------------------

The orbital elements are published on M.P.E.C. 2018-X12.
The charts are made with StellaNavigator Ver.10 (AstroArts).
The magnitudes graphs are made with Comet for Windows.

---------------------------------------------------------------------

Copyright(C) Seiichi Yoshida (comet@aerith.net). All rights reserved.